===========================================================================
XIII Circuito Regional - 5ª Etapa -
Três Passos 30 de Agosto de 2026
Dia: 30/08/2026
===========================================================================
Classificação Geral da Prova DE 5 Km
===========================================================================
Pos|Nr |Nome |Equipe |Cat | Tempo | Pace
===========================================================================
1 0113 ALEX RAMOS ANR/ADIDAS B 0:17:07 0:03:25
2 0154 GILBERTO LEMES ABREU DS ATLETISMO D 0:17:12 0:03:26
3 0122 FELIPE TOLOTTI BUFALOS TEAM C 0:17:16 0:03:27
4 0182 TIAGO ANDRÉ KORPALSKI ACORSEB E 0:17:40 0:03:32
5 0091 LORENZO REINALDO DE ABREU ANR/ADIDAS A 0:17:47 0:03:33
6 0472 RODRIGO RAMBO PETRI ACELCOR G 0:17:50 0:03:34
7 0143 GABRIEL CAVALHEIRO ALVES CT IRON C 0:17:57 0:03:35
8 0290 IGOR GABRIEL DOS SANTOS DE FREIT CCI C 0:18:19 0:03:39
9 0151 CASSIANO BERNARDO OTTONELLI Bombeiros D 0:18:22 0:03:40
10 0116 JARDEL RODRIGUES LEIRIA MX RUNNER B 0:18:28 0:03:41
11 0211 DOUGLAS SOARES DE ANDRADE CCI/Tbarbosa F 0:18:34 0:03:42
12 0117 ANDERSON GONÇALVES MX RUNNER B 0:18:38 0:03:43
13 0160 JEFERSON BATTU ADVANCE TEAM D 0:18:48 0:03:45
14 0191 GUILHERME AUGUSTO BONMANN PATRIOTAS E 0:18:59 0:03:47
15 0131 JULIANO PAZINI DALA COSTA ANR/ADIDAS C 0:19:03 0:03:48
16 0102 AFONSO WESLER MX RUNNER B 0:19:07 0:03:49
17 0109 GUSTAVO HENRIQUE LUFT ACELCOR B 0:19:17 0:03:51
18 0215 JORDANI NARDON R4H F 0:19:36 0:03:55
19 0121 ADILSON ALVES Ass Portela C 0:19:42 0:03:56
20 0129 GABRIEL PINHEIRO MX RUNNER C 0:19:46 0:03:57
21 0231 VALDIR ANTÔNIO MANN G.C.Ibirubá G 0:19:51 0:03:58
22 0176 PAULO NASCIMENTO Ijuí E 0:19:54 0:03:58
23 0097 BRUNO KUFF VARGAS DOCTORFIT A 0:19:57 0:03:59
24 0190 CLOVIS HORST PATRIOTAS E 0:20:02 0:04:00
25 0170 RICARDO MOHLER STREETRUNNER E 0:20:05 0:04:01
26 0229 FERNANDO DINIZ CCI G 0:20:09 0:04:01
27 0234 ELOIR KERSTING MALHEIROS R4H G 0:20:16 0:04:03
28 0173 ALEXANDRE VITORINO MX RUNNER E 0:20:21 0:04:04
29 0201 RAFAEL KNECHTEL CCI F 0:20:23 0:04:04
30 0164 DEIVIDI GUTERRES R4H D 0:20:26 0:04:05
31 0221 FERNANDO RIBEIRO MX RUNNER G 0:20:29 0:04:05
32 0111 FELIPE DE OLIVEIRA PLEGGE CCI B 0:20:35 0:04:07
33 0236 MARCO TÚLIO THOMÉ DA CRUZ CCI/Alto Nív H 0:20:38 0:04:07
34 0106 EDUARDO DE OLIVEIRA PLEGGE Ijuí B 0:20:42 0:04:08
35 0147 LUCAS AVILA CCI/André H. D 0:20:47 0:04:09
36 0132 GUSTAVO FONSECA STREETRUNNER C 0:20:57 0:04:11
37 0098 JOÃO HENRIQUE DREISSIG KIST Horizontina A 0:21:02 0:04:12
38 0140 VALDELIRIO DE FREITAS ACORSEB C 0:21:14 0:04:14
39 0207 MAICOM ANDREI KORPALSKI ACORSEB F 0:21:17 0:04:15
40 0180 VINÍCIUS PAUSE DE MATTOS ACELCOR E 0:21:21 0:04:16
41 0127 WILLIAN GUSTAVO MATTHES Três Passos C 0:21:25 0:04:17
42 0152 GILIAN OLIVEIRA PEDROSO São Borja D 0:21:28 0:04:17
43 0166 ALEX JÚNIOR GSCHNEITNER SAMA Runners D 0:21:30 0:04:18
44 0202 LUCIMAR BECKER DOS SANTOS R4H F 0:21:33 0:04:18
45 0219 DARCI JULIO MOHLER FILHO STREETRUNNER F 0:21:36 0:04:19
46 0123 FELIPE AUGUSTO FUHR Três Passos C 0:21:39 0:04:19
47 0237 CLAUDIOMIRO DA ROSA FRANCO CCI H 0:21:41 0:04:20
48 0114 MIGUEL LUIS AMORIM BÚFALOS .A B 0:21:44 0:04:20
49 0456 LUIZ FELIPE MENEGUZZI Acorseb D 0:21:49 0:04:21
50 0225 CÉSAR BALTASAR KREWER ACEHORUNNERS G 0:21:51 0:04:22
51 0185 RODRIGO JUNIOR RIBEIRO AssPortelens E 0:21:54 0:04:22
52 0118 VITOR MOTTA MX RUNNER B 0:21:57 0:04:23
53 0139 MARCOS AMARAL ANTUNES Acorseb C 0:22:00 0:04:24
54 0188 LEANDRO COUTO GULARTE G.C.Ibirubá E 0:22:03 0:04:24
55 0204 TASSIELO CASTRO DO ROSARIO A Voz da Fé F 0:22:06 0:04:25
56 0209 MÁRCIO ANDRÉ FONTANIVA Banrirunners F 0:22:09 0:04:25
57 0142 JOÃO VITOR CASTRO DO ROSARIO Alto Nivel C 0:22:12 0:04:26
58 0108 RONALDO LOPES DE MORAES MX RUNNER B 0:22:20 0:04:28
59 0174 CLÁUDIO LASSEN Sem equipe E 0:22:24 0:04:28
60 0302 CAROLINE BONAZZA ADVANCE TEAM R 0:22:27 0:04:29
61 0135 ALEX SCHABO MX RUNNER C 0:22:31 0:04:30
62 0159 MAICON CASTRO RAMOS ACORSEB D 0:22:34 0:04:30
63 0304 MARCHOIRE MARA SCHEID CCI S 0:22:38 0:04:31
64 0198 TIAGO DE MOURA LEITE CCI F 0:22:47 0:04:33
65 0246 GELSON SISTI CCI H 0:22:51 0:04:34
66 0105 VINICIUS COSETIN Búfalos do a B 0:22:54 0:04:34
67 0245 FÁBIO ALEXANDRE DOS SANTOS AssPortelens H 0:22:57 0:04:35
68 0366 EDIONE LACI SILVESTRE AssPortelens X 0:23:00 0:04:36
69 0125 EMERSON CHAGAS MX RUNNER C 0:23:03 0:04:36
70 0316 MARLANDA PATRÍCIA CAURE DA CUNHA R4H/CCI S 0:23:06 0:04:37
71 0090 GABRIEL ZIM Tiradentes d A 0:23:09 0:04:37
72 0094 TOBIAS ABEL DIAS WINCK MX RUNNER A 0:23:12 0:04:38
73 0186 JONIS MAIER FREM Campo novo E 0:23:15 0:04:39
74 0107 KELVIN HAUSCHILD DA SILVA MX RUNNER B 0:23:18 0:04:39
75 0361 LUCIANA DA LUZ Sicoob V 0:23:23 0:04:40
76 0256 PAULO ARISTEU WINCK Braga J 0:23:25 0:04:41
77 0208 MARCOS ANDRE DE VARGAS Área 55 F 0:23:27 0:04:41
78 0175 VINICIUS KLEIN GCI E 0:23:30 0:04:42
79 0251 GILMAR SBIACHESKI ACORSEB I 0:23:32 0:04:42
80 0168 EMERSON SILVEIRA LUNARDI Acehor Runne E 0:23:35 0:04:43
81 0249 VALTAIR INACIO ZORZO ACELCOR I 0:23:39 0:04:43
82 0243 SIDINEI MARQUETTI ACORSEB H 0:23:47 0:04:45
83 0255 ARTEMIO DOTTO ACEHORUNNERS J 0:23:49 0:04:45
84 0222 VANTOIR FREITAG ACEHORUNNERS G 0:23:52 0:04:46
85 0158 LEANDRO MANFIO ACORSEB D 0:23:54 0:04:46
86 0144 ALEXSANDER ALDINO SCHEEREN LUFT Panambi C 0:23:57 0:04:47
87 0276 GABRIELI LETÍCIA HENNICHER MX RUNNER P 0:24:01 0:04:48
88 0230 ALESSANDRO VINÍCIUS DA SILVA CCI/Liv Fit G 0:24:03 0:04:48
89 0235 GILMAR MACHADO MX RUNNER H 0:24:05 0:04:49
90 0141 MAICON CLOSS ACORSEB C 0:24:07 0:04:49
91 0104 JOÃO PAULO DA SILVA FRIEDRICH PACE LIVRE R B 0:24:10 0:04:50
92 0321 DIANA COSSETIN ZANOSO Búfalo T 0:24:14 0:04:50
93 0200 NELSON JAIR STAFFEN Sem equipe F 0:24:16 0:04:51
94 0323 VERIDIANE MANN Advanced tea T 0:24:18 0:04:51
95 0093 GABRIEL CHAGAS Búfalos do a A 0:24:21 0:04:52
96 0301 MARLI LUCIA HENKES Três Passos R 0:24:24 0:04:52
97 0212 WAGNER BERNARDI Horizontina F 0:24:26 0:04:53
98 0145 LUCAS DARLAN WINDMOLLER R4H C 0:24:31 0:04:54
99 0214 AMAURI FABIANO WORMS CHAGAS R4H F 0:24:35 0:04:55
100 0250 GILBERTO DONAT ACEHORUNNERS I 0:24:38 0:04:55
101 0178 PAULO RICARDO CCI E 0:24:41 0:04:56
102 0238 JEOVANE JANDRE ANGELI DE ZORZI Santa Rosa H 0:24:43 0:04:56
103 0189 RODRIGO PORFÍRIO MX RUNNER E 0:24:46 0:04:57
104 0292 INDIGRI SILVA R4H Q 0:24:49 0:04:57
105 0342 RAMONI MURIEL ALVES TELEKEN MX RUNNER T 0:24:51 0:04:58
106 0367 CLEIR MOSSINI ACORFW X 0:24:54 0:04:58
107 0136 GUILHERME DANIEL LUFT Acelcor C 0:24:57 0:04:59
108 0133 FABIANO VÍVIAN HEDLUND Búfalos do A C 0:24:59 0:04:59
109 0161 LUCAS MACHADO Fitness D 0:25:01 0:05:00
110 0307 TANARA LAÍS HÜNEMEIER Beta Furlan S 0:25:03 0:05:00
111 0332 MARLENE FONTANA Acorcb T 0:25:06 0:05:01
112 0354 SANDRA PELISSON SCHERER CCI V 0:25:09 0:05:01
113 0128 GUILHERME LUAN NEUHAUS LANZ MX RUNNER C 0:25:11 0:05:02
114 0192 DANIEL NOVAES DE SOUZA Tenente Port E 0:25:13 0:05:02
115 0252 VALMIR PRESSI AssPortelens I 0:25:16 0:05:03
116 0149 VINNICIUS FERRARI WALLAU Porquetucorr D 0:25:20 0:05:04
117 0360 SANDRA CORAZZA GONÇALVES Panambi V 0:25:22 0:05:04
118 0241 DANIEL DO NASCIMENTO MACHADO ACELCOR H 0:25:27 0:05:05
119 0333 CAROLINA DANIELA PADILHA ANR/ADIDAS T 0:25:30 0:05:06
120 0195 ADILSON PEREIRA DA SILVA Advanced tea F 0:25:33 0:05:06
121 0126 CLAUDIMIR ALVARENGA DE ALMEIDA PACE LIVRE C 0:25:36 0:05:07
122 0265 AFONSO BRUNO DUCATTO ACELCOR K 0:25:47 0:05:09
123 0162 ALEX RODRIGO MAIER FORÇA TÁTICA D 0:25:50 0:05:10
124 0289 RUBIANE ISABEL KEIBER PEREIRA ADVANCE TEAM Q 0:25:54 0:05:10
125 0325 GABRIELA SZULCZEWSKI DOS SANTOS GCI T 0:25:56 0:05:11
126 0297 SUELEN HABITZREITER A.Villa Fitn R 0:26:00 0:05:12
127 0110 LUÍS ARTHUR HANSEN Três Passos B 0:26:03 0:05:12
128 0156 FERNANDO HENRIQUE HICHMANN MX RUNNER D 0:26:06 0:05:13
129 0138 LUCAS VINÍCIOS MEYER AC3P C 0:26:09 0:05:13
130 0349 SIDIANE DREYER MORAES MX RUNNER U 0:26:11 0:05:14
131 0203 CARLOS ALBERTO KNOLL 7º BPM F 0:26:14 0:05:14
132 0318 FERNANDA REGINA HERMANN Três Passos S 0:26:17 0:05:15
133 0194 ALISSON MULLER Três Passos F 0:26:19 0:05:15
134 0183 ABEDIEL MATIASSO ACORSEB E 0:26:23 0:05:16
135 0264 VANDERLEI HUPP HAMMARSTRON CCI K 0:26:25 0:05:17
136 0165 EDUARDO LANG FENNER Run4life D 0:26:27 0:05:17
137 0247 FABIO CASOLA CASOLA Derrubadas H 0:26:30 0:05:18
138 0351 ANA JUÇARA LEONE FRUETTI CCI U 0:26:33 0:05:18
139 0259 MARCIO JORGE SCHUTZ CCI J 0:26:35 0:05:19
140 0099 BERNARDO BORN Três Passos A 0:26:38 0:05:19
141 0353 MARTA DUARTE Nao U 0:26:41 0:05:20
142 0312 ANGÉLICA CARINE VIERA MURARO ACORSEB S 0:26:45 0:05:21
143 0330 LILIAN BEATRIZ BINSFELD ACEHORUNNERS T 0:26:48 0:05:21
144 0340 JULIANE FOCKINK Curitiba T 0:26:51 0:05:22
145 0319 ALINE VANESSA DO NASCIMENTO MX RUNNER T 0:26:53 0:05:22
146 0291 LUANA ELISA MARANGON FELDKERCHER PACE LIVRE R 0:26:55 0:05:23
147 0278 RAÍSSA FONSECA ROEHRS Santo Ângelo P 0:27:04 0:05:24
148 0345 GRACIELA SOLANGE WENDLING STREETRUNNER U 0:27:07 0:05:25
149 0242 CARLOS LEITE FERNANDES ACELCOR H 0:27:11 0:05:26
150 0240 ROBERTO JAESCHKE Acelcor H 0:27:14 0:05:26
151 0317 IANDORA N H PRETTO Três Passos S 0:27:16 0:05:27
152 0169 ROBSON ALEX PRETTO Três Passos E 0:27:18 0:05:27
153 0134 WILLIAN GUSTAVO LUNKES SCOPEL Sicredi C 0:27:21 0:05:28
154 0115 RINE ANNE ALINE MX RUNNER P 0:27:23 0:05:28
155 0310 SAIONARA ARRIERA ACELCOR S 0:27:33 0:05:30
156 0315 CATIA CRISTINE URNAU VIVIAN MX RUNNER S 0:27:38 0:05:31
157 0213 EVERTON LUIS VIVIAN MX RUNNER F 0:27:40 0:05:32
158 0210 MAGALI MACHADO DOS SANTOS MX RUNNER T 0:27:45 0:05:33
159 0263 PEDRO VERDUM Três Passos J 0:27:49 0:05:33
160 0257 ERNETO ANTÔNIO WINCK Braga J 0:27:52 0:05:34
161 0341 CLAUDIA KIST Horizontina T 0:27:57 0:05:35
162 0336 ANA PAULA GÓIS CCI T 0:28:07 0:05:37
163 0155 VALDINEI REUTER Três Passos D 0:28:10 0:05:38
164 0335 CRISTIANA ALBARELLO Área 55 T 0:28:12 0:05:38
165 0260 DARCI ANTONIO BORTOLAZ EVIDENCE J 0:28:16 0:05:39
166 0324 CATIUSCIA BARCELOS CCI T 0:28:18 0:05:39
167 0281 ANGELICA FERREYRA Três Passos P 0:28:21 0:05:40
168 0137 DEYVID LUAN LOPES JONER Crissiumal R C 0:28:23 0:05:40
169 0346 LEONICE MADALENA DE SOUZA MX RUNNER U 0:28:25 0:05:41
170 0285 NADINE LAMAISON R4H Q 0:28:29 0:05:41
171 0148 JUAN LAMAISON R4H D 0:28:31 0:05:42
172 0232 EVANDRO KIST Horizontina G 0:28:46 0:05:45
173 0287 SARA TAUANI SERRA MAIER 7° BPM Q 0:28:49 0:05:45
174 0228 NEIVA LANG CCI U 0:28:52 0:05:46
175 0368 REJANE BISELLO ACORFW X 0:28:56 0:05:47
176 0306 LUANA SCHNEIDER WEBER KNECHTEL CCI S 0:28:58 0:05:47
177 0227 MIRIAM KOMMERS CCI U 0:29:05 0:05:49
178 0266 VALDEMAR ROSA DA SILVA CCI K 0:29:12 0:05:50
179 0339 SOLANGE APARECIDA DA CRUZ Cross Run T 0:29:14 0:05:50
180 0314 ANDRIELI ABADI MaratonaClub S 0:29:19 0:05:51
181 0358 LUCIANE LOURENÇÃO GREGORI MaratonaClub V 0:29:25 0:05:53
182 0471 LIZIANI DA SILVA CCI U 0:29:38 0:05:55
183 0328 GIRLAINE PACHECO RITMUS T 0:29:41 0:05:56
184 0258 GELSON FÁBIO BRUM CCI J 0:29:47 0:05:57
185 0153 LEONARDO HENDGES CCI D 0:29:52 0:05:58
186 0364 SANDRA PSIUK ACELCOR W 0:30:07 0:06:01
187 0303 DEBORA NARLO SOUTIER Vetria Acess R 0:30:10 0:06:02
188 0359 ROSANGELA SIMONE DA ROS PETRY MX RUNNER V 0:30:17 0:06:03
189 0327 IVONE TEREZINHA VARGAS DE SOUZA ACORSEB T 0:30:23 0:06:04
190 0329 CASSIANI KAHLBANN BAIER ACEHORUNNERS T 0:30:26 0:06:05
191 0313 LEIDIANE CRISTINA BARELLA EAtlet.deT.P S 0:30:42 0:06:08
192 0253 ALCIDES POMPEO DA SILVA Braga I 0:30:46 0:06:09
193 0112 KETLIN ZAMBIASI DA ROSA 15 MILHAS P 0:30:51 0:06:10
194 0124 HIGGOR LEONARDO ROOS PERCOSKI Três Passos C 0:30:54 0:06:10
195 0343 FÁBRICIA FOLIATTI STREETRUNNER T 0:30:58 0:06:11
196 0280 PATRÍCIA BOTH ACELCOR P 0:31:02 0:06:12
197 0261 ALTAIR CECCATO MX RUNNER J 0:31:14 0:06:14
198 0199 FELIPE ESTEVES OLIVESKI CCI F 0:31:31 0:06:18
199 0286 LUIZA RAFAELA BIEGER AMARO Pink Pace Q 0:31:40 0:06:20
200 0239 EBIO ALENCAR DA SILVA BASTOS 1º PELOTÃO H 0:31:43 0:06:20
201 0337 VIVIANE ELENA DA CRUZ CCI T 0:31:47 0:06:21
202 0363 ROSANE TERESINHA A. SCHULZ ACEHORUNNERS W 0:31:52 0:06:22
203 0473 ALEXIA RAFAELA RENZ MX RUNNER Q 0:31:56 0:06:23
204 0294 VERÔNICA DA ROSA DA SILVA Vetria Acess Q 0:31:59 0:06:23
205 0348 JULIANA PEDRALLI MX RUNNER U 0:32:01 0:06:24
206 0334 SOLANGE CRISTINA CAPOANE DE VARG Area 55 T 0:32:05 0:06:25
207 0326 DEBORA FRANCIELI V. DA TRINDADE CCI T 0:32:08 0:06:25
208 0344 DEBORA FERRAZZA MX RUNNER U 0:32:11 0:06:26
209 0299 EMANUELLE APPELT FOESCH Porquetucorr R 0:32:14 0:06:26
210 0248 ELECIR JOSE KOEHLER Três Passos I 0:32:23 0:06:28
211 0284 LUANA RAFAELA DOS PASSOS KERBER Três Passos Q 0:32:31 0:06:30
212 0167 JONATHAN FERNANDO ANTUNES DE MOU Três Passos D 0:32:35 0:06:31
213 0356 ELENARA MARIA PRICHULA ACORSEB V 0:32:39 0:06:31
214 0262 ANTONIO DA LUZ Ral Runner J 0:32:42 0:06:32
215 0095 JONATAN WEISS ACEHORUNNERS A 0:32:46 0:06:33
216 0338 LIDIANE DALLA NORA CCI/Tbarbosa T 0:32:49 0:06:33
217 0197 JOSIMAR CATIAN DA SILVA REBELO Três Passos F 0:32:53 0:06:34
218 0293 ANGELA FABIANA DE OLIVEIRA Três Passos Q 0:32:56 0:06:35
219 0223 GUSTAVO MARCOS CARDOSO Atlet.T.P. G 0:33:24 0:06:40
220 0274 VALENTINA FREITAG ACEHORUNNERS O 0:33:28 0:06:41
221 0369 VITÓRIA WONTROBA BANDEIRA CCI X 0:33:32 0:06:42
222 0272 VICTORIA QUERIM ANTUNEZ VIEIRA Esperança do O 0:33:35 0:06:43
223 0362 SIRLEI MOURA CROSS RUN W 0:33:40 0:06:44
224 0157 MARCELO RONCATO ACEHORUNNERS D 0:33:49 0:06:45
225 0150 LUAN CHRISTIAN DA SILVA CCI D 0:33:53 0:06:46
226 0146 REGIS MARTINS KNORST Três Passos C 0:34:04 0:06:48
227 0365 MARLI TEREZA BIRKHAN Cross rum X 0:34:21 0:06:52
228 0308 DAIANE TAÍS MOHR ACEHORUNNERS S 0:34:35 0:06:55
229 0331 BEATRIZ FREITAG ACEHORUNNERS T 0:34:38 0:06:55
230 0275 YASMIM AMANDA DA SILVA VIANNA ACEHORUNNERS O 0:34:44 0:06:56
231 0474 MARILIA GABRIELA MOREIRA CCI Q 0:34:57 0:06:59
232 0092 VITOR HENRIQUE DA SILVA REBELO Três Passos A 0:35:15 0:07:03
233 0226 JOÃO PAULO ANDRIGHETTO Brigada mili G 0:35:34 0:07:06
234 0217 LEANDRO BERNARDO FERREIRA Santa Rosa F 0:35:37 0:07:07
235 0177 LUCIMAR CRISTIANO DA SILVA REBEL 7° BPM E 0:35:47 0:07:09
236 0372 ROSANGELA MARIA FERRARI DE MATOS MX RUNNER Y 0:36:08 0:07:13
237 0357 VILMA CRUZ OLIVEIRA Coronel Bica V 0:36:49 0:07:21
238 0347 JULIA GRACIELA JANDREY ROTH Condor U 0:36:52 0:07:22
239 0277 ANA LETÍCIA DE MOURA DIAS RH4 P 0:36:59 0:07:23
240 0295 ANA CRISTINA DA SILVA STREETRUNNER R 0:37:09 0:07:25
241 0283 KELLEN FACCHINETTO DA CUNHA Três Passos Q 0:37:18 0:07:27
242 0370 MARINES SCHEER MX RUNNER X 0:37:26 0:07:29
243 0305 VANESSA CAROLINA HACK DA COSTA R4H S 0:38:10 0:07:38
244 0268 BRUNO ADORIAN G.C.Ibirubá L 0:38:16 0:07:39
245 0371 ERENITA KONAGESKI CCI Y 0:38:20 0:07:40
246 0270 VIMAR KONAGESKI CCI M 0:39:00 0:07:48
247 0496 LENIR FATIMA ALVES DA ROCHA ACORSEB Y 0:39:05 0:07:49
248 0269 SAUL DA SILVA CAMARA CIA Da Terra M 0:39:30 0:07:54
249 0271 VALTER MACIEL CHAGAS DA SILVA Com..Lewiski M 0:46:43 0:09:20
Premiação Geral Masculino
===========================================================================
Pos|Nr |Nome |Equipe |Cat | Tempo | Pace
===========================================================================
1 0113 ALEX RAMOS ANR/ADIDAS B 0:17:07 0:03:25
2 0154 GILBERTO LEMES ABREU DS ATLETISMO D 0:17:12 0:03:26
3 0122 FELIPE TOLOTTI BUFALOS TEAM C 0:17:16 0:03:27
4 0182 TIAGO ANDRÉ KORPALSKI ACORSEB E 0:17:40 0:03:32
5 0091 LORENZO REINALDO DE ABREU ANR/ADIDAS A 0:17:47 0:03:33
Premiação Geral Feminino
===========================================================================
Pos|Nr |Nome |Equipe |Cat | Tempo | Pace
===========================================================================
1 0302 CAROLINE BONAZZA ADVANCE TEAM R 0:22:27 0:04:29
2 0304 MARCHOIRE MARA SCHEID CCI S 0:22:38 0:04:31
3 0366 EDIONE LACI SILVESTRE AssPortelens X 0:23:00 0:04:36
4 0316 MARLANDA PATRÍCIA CAURE DA CUNHA R4H/CCI S 0:23:06 0:04:37
5 0361 LUCIANA DA LUZ Sicoob V 0:23:23 0:04:40
Premiação Por Categorias
Categoria A:
===========================================================================
Pos|Nr |Nome |Equipe |Cat | Tempo | Pace
===========================================================================
1 0097 BRUNO KUFF VARGAS DOCTORFIT A 0:19:57 0:03:59
2 0098 JOÃO HENRIQUE DREISSIG KIST Horizontina A 0:21:02 0:04:12
3 0090 GABRIEL ZIM Tiradentes d A 0:23:09 0:04:37
4 0094 TOBIAS ABEL DIAS WINCK MX RUNNER A 0:23:12 0:04:38
5 0093 GABRIEL CHAGAS Búfalos do a A 0:24:21 0:04:52
6 0099 BERNARDO BORN Três Passos A 0:26:38 0:05:19
7 0095 JONATAN WEISS ACEHORUNNERS A 0:32:46 0:06:33
8 0092 VITOR HENRIQUE DA SILVA REBELO Três Passos A 0:35:15 0:07:03
Categoria B:
===========================================================================
Pos|Nr |Nome |Equipe |Cat | Tempo | Pace
===========================================================================
1 0116 JARDEL RODRIGUES LEIRIA MX RUNNER B 0:18:28 0:03:41
2 0117 ANDERSON GONÇALVES MX RUNNER B 0:18:38 0:03:43
3 0102 AFONSO WESLER MX RUNNER B 0:19:07 0:03:49
4 0109 GUSTAVO HENRIQUE LUFT ACELCOR B 0:19:17 0:03:51
5 0111 FELIPE DE OLIVEIRA PLEGGE CCI B 0:20:35 0:04:07
6 0106 EDUARDO DE OLIVEIRA PLEGGE Ijuí B 0:20:42 0:04:08
7 0114 MIGUEL LUIS AMORIM BÚFALOS .A B 0:21:44 0:04:20
8 0118 VITOR MOTTA MX RUNNER B 0:21:57 0:04:23
9 0108 RONALDO LOPES DE MORAES MX RUNNER B 0:22:20 0:04:28
10 0105 VINICIUS COSETIN Búfalos do a B 0:22:54 0:04:34
11 0107 KELVIN HAUSCHILD DA SILVA MX RUNNER B 0:23:18 0:04:39
12 0104 JOÃO PAULO DA SILVA FRIEDRICH PACE LIVRE R B 0:24:10 0:04:50
13 0110 LUÍS ARTHUR HANSEN Três Passos B 0:26:03 0:05:12
Categoria C:
===========================================================================
Pos|Nr |Nome |Equipe |Cat | Tempo | Pace
===========================================================================
1 0143 GABRIEL CAVALHEIRO ALVES CT IRON C 0:17:57 0:03:35
2 0290 IGOR GABRIEL DOS SANTOS DE FREIT CCI C 0:18:19 0:03:39
3 0131 JULIANO PAZINI DALA COSTA ANR/ADIDAS C 0:19:03 0:03:48
4 0121 ADILSON ALVES Ass Portela C 0:19:42 0:03:56
5 0129 GABRIEL PINHEIRO MX RUNNER C 0:19:46 0:03:57
6 0132 GUSTAVO FONSECA STREETRUNNER C 0:20:57 0:04:11
7 0140 VALDELIRIO DE FREITAS ACORSEB C 0:21:14 0:04:14
8 0127 WILLIAN GUSTAVO MATTHES Três Passos C 0:21:25 0:04:17
9 0123 FELIPE AUGUSTO FUHR Três Passos C 0:21:39 0:04:19
10 1183 GABRIEL FERREIRA NEVES Ijuí C 0:21:57 0:04:23
11 0139 MARCOS AMARAL ANTUNES Acorseb C 0:22:00 0:04:24
12 0142 JOÃO VITOR CASTRO DO ROSARIO Alto Nivel C 0:22:12 0:04:26
13 0135 ALEX SCHABO MX RUNNER C 0:22:31 0:04:30
14 0125 EMERSON CHAGAS MX RUNNER C 0:23:03 0:04:36
15 0144 ALEXSANDER ALDINO SCHEEREN LUFT Panambi C 0:23:57 0:04:47
16 0141 MAICON CLOSS ACORSEB C 0:24:07 0:04:49
17 0145 LUCAS DARLAN WINDMOLLER R4H C 0:24:31 0:04:54
18 0136 GUILHERME DANIEL LUFT Acelcor C 0:24:57 0:04:59
19 0133 FABIANO VÍVIAN HEDLUND Búfalos do A C 0:24:59 0:04:59
20 0128 GUILHERME LUAN NEUHAUS LANZ MX RUNNER C 0:25:11 0:05:02
21 0126 CLAUDIMIR ALVARENGA DE ALMEIDA PACE LIVRE C 0:25:36 0:05:07
22 0138 LUCAS VINÍCIOS MEYER AC3P C 0:26:09 0:05:13
23 0134 WILLIAN GUSTAVO LUNKES SCOPEL Sicredi C 0:27:21 0:05:28
24 0137 DEYVID LUAN LOPES JONER Crissiumal R C 0:28:23 0:05:40
25 0128 GUILHERME LUAN NEUHAUS LANZ MX RUNNER C 0:28:52 0:05:46
26 0124 HIGGOR LEONARDO ROOS PERCOSKI Três Passos C 0:30:54 0:06:10
27 0146 REGIS MARTINS KNORST Três Passos C 0:34:04 0:06:48
Categoria D:
===========================================================================
Pos|Nr |Nome |Equipe |Cat | Tempo | Pace
===========================================================================
1 0151 CASSIANO BERNARDO OTTONELLI Bombeiros D 0:18:22 0:03:40
2 0160 JEFERSON BATTU ADVANCE TEAM D 0:18:48 0:03:45
3 0164 DEIVIDI GUTERRES R4H D 0:20:26 0:04:05
4 0147 LUCAS AVILA CCI/André H. D 0:20:47 0:04:09
5 0152 GILIAN OLIVEIRA PEDROSO São Borja D 0:21:28 0:04:17
6 0166 ALEX JÚNIOR GSCHNEITNER SAMA Runners D 0:21:30 0:04:18
7 0456 LUIZ FELIPE MENEGUZZI Acorseb D 0:21:49 0:04:21
8 0159 MAICON CASTRO RAMOS ACORSEB D 0:22:34 0:04:30
9 0158 LEANDRO MANFIO ACORSEB D 0:23:54 0:04:46
10 0161 LUCAS MACHADO Fitness D 0:25:01 0:05:00
11 0162 ALEX RODRIGO MAIER FORÇA TÁTICA D 0:25:50 0:05:10
12 0149 VINNICIUS FERRARI WALLAU Porquetucorr D 0:25:20 0:05:04
13 0156 FERNANDO HENRIQUE HICHMANN MX RUNNER D 0:26:06 0:05:13
14 0165 EDUARDO LANG FENNER Run4life D 0:26:27 0:05:17
15 0155 VALDINEI REUTER Três Passos D 0:28:10 0:05:38
16 0148 JUAN LAMAISON R4H D 0:28:31 0:05:42
17 0153 LEONARDO HENDGES CCI D 0:29:52 0:05:58
18 0167 JONATHAN FERNANDO ANTUNES DE MOU Três Passos D 0:32:35 0:06:31
19 0157 MARCELO RONCATO ACEHORUNNERS D 0:33:49 0:06:45
20 0150 LUAN CHRISTIAN DA SILVA CCI D 0:33:53 0:06:46
Categoria E:
===========================================================================
Pos|Nr |Nome |Equipe |Cat | Tempo | Pace
===========================================================================
1 0191 GUILHERME AUGUSTO BONMANN PATRIOTAS E 0:18:59 0:03:47
2 0176 PAULO NASCIMENTO Ijuí E 0:19:54 0:03:58
3 0190 CLOVIS HORST PATRIOTAS E 0:20:02 0:04:00
4 0170 RICARDO MOHLER STREETRUNNER E 0:20:05 0:04:01
5 0173 ALEXANDRE VITORINO MX RUNNER E 0:20:21 0:04:04
6 0180 VINÍCIUS PAUSE DE MATTOS ACELCOR E 0:21:21 0:04:16
7 0185 RODRIGO JUNIOR RIBEIRO AssPortelens E 0:21:54 0:04:22
8 0188 LEANDRO COUTO GULARTE G.C.Ibirubá E 0:22:03 0:04:24
9 0174 CLÁUDIO LASSEN Sem equipe E 0:22:24 0:04:28
10 0186 JONIS MAIER FREM Campo novo E 0:23:15 0:04:39
11 0175 VINICIUS KLEIN GCI E 0:23:30 0:04:42
12 0168 EMERSON SILVEIRA LUNARDI Acehor Runne E 0:23:35 0:04:43
13 0178 PAULO RICARDO CCI E 0:24:41 0:04:56
14 0189 RODRIGO PORFÍRIO MX RUNNER E 0:24:46 0:04:57
15 0192 DANIEL NOVAES DE SOUZA Tenente Port E 0:25:13 0:05:02
16 0183 ABEDIEL MATIASSO ACORSEB E 0:26:23 0:05:16
17 0169 ROBSON ALEX PRETTO Três Passos E 0:27:18 0:05:27
18 0177 LUCIMAR CRISTIANO DA SILVA REBEL 7° BPM E 0:35:47 0:07:09
Categoria F:
===========================================================================
Pos|Nr |Nome |Equipe |Cat | Tempo | Pace
===========================================================================
1 0211 DOUGLAS SOARES DE ANDRADE CCI/Tbarbosa F 0:18:34 0:03:42
2 0215 JORDANI NARDON R4H F 0:19:36 0:03:55
3 0201 RAFAEL KNECHTEL CCI F 0:20:23 0:04:04
4 0207 MAICOM ANDREI KORPALSKI ACORSEB F 0:21:17 0:04:15
5 0202 LUCIMAR BECKER DOS SANTOS R4H F 0:21:33 0:04:18
6 0219 DARCI JULIO MOHLER FILHO STREETRUNNER F 0:21:36 0:04:19
7 0204 TASSIELO CASTRO DO ROSARIO A Voz da Fé F 0:22:06 0:04:25
8 0209 MÁRCIO ANDRÉ FONTANIVA Banrirunners F 0:22:09 0:04:25
9 0198 TIAGO DE MOURA LEITE CCI F 0:22:47 0:04:33
10 0208 MARCOS ANDRE DE VARGAS Área 55 F 0:23:27 0:04:41
11 0200 NELSON JAIR STAFFEN Sem equipe F 0:24:16 0:04:51
12 0212 WAGNER BERNARDI Horizontina F 0:24:26 0:04:53
13 0214 AMAURI FABIANO WORMS CHAGAS R4H F 0:24:35 0:04:55
14 0195 ADILSON PEREIRA DA SILVA Advanced tea F 0:25:33 0:05:06
15 0203 CARLOS ALBERTO KNOLL 7º BPM F 0:26:14 0:05:14
16 0194 ALISSON MULLER Três Passos F 0:26:19 0:05:15
17 0213 EVERTON LUIS VIVIAN MX RUNNER F 0:27:40 0:05:32
18 0199 FELIPE ESTEVES OLIVESKI CCI F 0:31:31 0:06:18
19 0197 JOSIMAR CATIAN DA SILVA REBELO Três Passos F 0:32:53 0:06:34
20 0217 LEANDRO BERNARDO FERREIRA Santa Rosa F 0:35:37 0:07:07
Categoria G:
===========================================================================
Pos|Nr |Nome |Equipe |Cat | Tempo | Pace
===========================================================================
1 0472 RODRIGO RAMBO PETRI ACELCOR G 0:17:50 0:03:34
2 0231 VALDIR ANTÔNIO MANN G.C.Ibirubá G 0:19:51 0:03:58
3 0229 FERNANDO DINIZ CCI G 0:20:09 0:04:01
4 0234 ELOIR KERSTING MALHEIROS R4H G 0:20:16 0:04:03
5 0221 FERNANDO RIBEIRO MX RUNNER G 0:20:29 0:04:05
6 0225 CÉSAR BALTASAR KREWER ACEHORUNNERS G 0:21:51 0:04:22
7 0222 VANTOIR FREITAG ACEHORUNNERS G 0:23:52 0:04:46
8 0230 ALESSANDRO VINÍCIUS DA SILVA CCI/Liv Fit G 0:24:03 0:04:48
9 0232 EVANDRO KIST Horizontina G 0:28:46 0:05:45
10 0223 GUSTAVO MARCOS CARDOSO Atlet.T.P. G 0:33:24 0:06:40
11 0226 JOÃO PAULO ANDRIGHETTO Brigada mili G 0:35:34 0:07:06
Categoria H:
===========================================================================
Pos|Nr |Nome |Equipe |Cat | Tempo | Pace
===========================================================================
1 0236 MARCO TÚLIO THOMÉ DA CRUZ CCI/Alto Nív H 0:20:38 0:04:07
2 0237 CLAUDIOMIRO DA ROSA FRANCO CCI H 0:21:41 0:04:20
3 0246 GELSON SISTI CCI H 0:22:51 0:04:34
4 0245 FÁBIO ALEXANDRE DOS SANTOS AssPortelens H 0:22:57 0:04:35
5 0243 SIDINEI MARQUETTI ACORSEB H 0:23:47 0:04:45
6 0235 GILMAR MACHADO MX RUNNER H 0:24:05 0:04:49
7 0238 JEOVANE JANDRE ANGELI DE ZORZI Santa Rosa H 0:24:43 0:04:56
8 0241 DANIEL DO NASCIMENTO MACHADO ACELCOR H 0:25:27 0:05:05
9 0247 FABIO CASOLA CASOLA Derrubadas H 0:26:30 0:05:18
10 0242 CARLOS LEITE FERNANDES ACELCOR H 0:27:11 0:05:26
11 0240 ROBERTO JAESCHKE Acelcor H 0:27:14 0:05:26
12 0239 EBIO ALENCAR DA SILVA BASTOS 1º PELOTÃO H 0:31:43 0:06:20
Categoria I:
===========================================================================
Pos|Nr |Nome |Equipe |Cat | Tempo | Pace
===========================================================================
1 0251 GILMAR SBIACHESKI ACORSEB I 0:23:32 0:04:42
2 0249 VALTAIR INACIO ZORZO ACELCOR I 0:23:39 0:04:43
3 0250 GILBERTO DONAT ACEHORUNNERS I 0:24:38 0:04:55
4 0252 VALMIR PRESSI AssPortelens I 0:25:16 0:05:03
5 0253 ALCIDES POMPEO DA SILVA Braga I 0:30:46 0:06:09
6 0248 ELECIR JOSE KOEHLER Três Passos I 0:32:23 0:06:28
Categoria J:
===========================================================================
Pos|Nr |Nome |Equipe |Cat | Tempo | Pace
===========================================================================
1 0256 PAULO ARISTEU WINCK Braga J 0:23:25 0:04:41
2 0255 ARTEMIO DOTTO ACEHORUNNERS J 0:23:49 0:04:45
3 0259 MARCIO JORGE SCHUTZ CCI J 0:26:35 0:05:19
4 0263 PEDRO VERDUM Três Passos J 0:27:49 0:05:33
5 0257 ERNETO ANTÔNIO WINCK Braga J 0:27:52 0:05:34
6 0260 DARCI ANTONIO BORTOLAZ EVIDENCE J 0:28:16 0:05:39
7 0258 GELSON FÁBIO BRUM CCI J 0:29:47 0:05:57
8 0261 ALTAIR CECCATO MX RUNNER J 0:31:14 0:06:14
9 0262 ANTONIO DA LUZ Ral Runner J 0:32:42 0:06:32
Categoria K:
===========================================================================
Pos|Nr |Nome |Equipe |Cat | Tempo | Pace
===========================================================================
1 0265 AFONSO BRUNO DUCATTO ACELCOR K 0:25:47 0:05:09
2 0264 VANDERLEI HUPP HAMMARSTRON CCI K 0:26:25 0:05:17
3 0266 VALDEMAR ROSA DA SILVA CCI K 0:29:12 0:05:50
Categoria L:
===========================================================================
Pos|Nr |Nome |Equipe |Cat | Tempo | Pace
===========================================================================
1 0268 BRUNO ADORIAN G.C.Ibirubá L 0:38:16 0:07:39
Categoria M:
===========================================================================
Pos|Nr |Nome |Equipe |Cat | Tempo | Pace
===========================================================================
1 0270 VIMAR KONAGESKI CCI M 0:39:00 0:07:48
2 0269 SAUL DA SILVA CAMARA CIA Da Terra M 0:39:30 0:07:54
3 0271 VALTER MACIEL CHAGAS DA SILVA Com..Lewiski M 0:46:43 0:09:20
Categoria O:
===========================================================================
Pos|Nr |Nome |Equipe |Cat | Tempo | Pace
===========================================================================
1 0274 VALENTINA FREITAG ACEHORUNNERS O 0:33:28 0:06:41
2 0272 VICTORIA QUERIM ANTUNEZ VIEIRA Esperança do O 0:33:35 0:06:43
3 0275 YASMIM AMANDA DA SILVA VIANNA ACEHORUNNERS O 0:34:44 0:06:56
Categoria P:
===========================================================================
Pos|Nr |Nome |Equipe |Cat | Tempo | Pace
===========================================================================
1 0276 GABRIELI LETÍCIA HENNICHER MX RUNNER P 0:24:01 0:04:48
2 0278 RAÍSSA FONSECA ROEHRS Santo Ângelo P 0:27:04 0:05:24
3 0115 RINE ANNE ALINE MX RUNNER P 0:27:23 0:05:28
4 0281 ANGELICA FERREYRA Três Passos P 0:28:21 0:05:40
5 0112 KETLIN ZAMBIASI DA ROSA 15 MILHAS P 0:30:51 0:06:10
6 0280 PATRÍCIA BOTH ACELCOR P 0:31:02 0:06:12
7 0277 ANA LETÍCIA DE MOURA DIAS RH4 P 0:36:59 0:07:23
Categoria Q:
===========================================================================
Pos|Nr |Nome |Equipe |Cat | Tempo | Pace
===========================================================================
1 0292 INDIGRI SILVA R4H Q 0:24:49 0:04:57
2 0289 RUBIANE ISABEL KEIBER PEREIRA ADVANCE TEAM Q 0:25:54 0:05:10
3 0285 NADINE LAMAISON R4H Q 0:28:29 0:05:41
4 0287 SARA TAUANI SERRA MAIER 7° BPM Q 0:28:49 0:05:45
5 0286 LUIZA RAFAELA BIEGER AMARO Pink Pace Q 0:31:40 0:06:20
6 0473 ALEXIA RAFAELA RENZ MX RUNNER Q 0:31:56 0:06:23
7 0294 VERÔNICA DA ROSA DA SILVA Vetria Acess Q 0:31:59 0:06:23
8 0284 LUANA RAFAELA DOS PASSOS KERBER Três Passos Q 0:32:31 0:06:30
9 0293 ANGELA FABIANA DE OLIVEIRA Três Passos Q 0:32:56 0:06:35
10 0474 MARILIA GABRIELA MOREIRA CCI Q 0:34:57 0:06:59
11 0283 KELLEN FACCHINETTO DA CUNHA Três Passos Q 0:37:18 0:07:27
Categoria R:
===========================================================================
Pos|Nr |Nome |Equipe |Cat | Tempo | Pace
===========================================================================
1 0301 MARLI LUCIA HENKES Três Passos R 0:24:24 0:04:52
2 0297 SUELEN HABITZREITER A.Villa Fitn R 0:26:00 0:05:12
3 0291 LUANA ELISA MARANGON FELDKERCHER PACE LIVRE R 0:26:55 0:05:23
4 0303 DEBORA NARLO SOUTIER Vetria Acess R 0:30:10 0:06:02
5 0299 EMANUELLE APPELT FOESCH Porquetucorr R 0:32:14 0:06:26
6 0295 ANA CRISTINA DA SILVA STREETRUNNER R 0:37:09 0:07:25
Categoria S:
===========================================================================
Pos|Nr |Nome |Equipe |Cat | Tempo | Pace
===========================================================================
1 0307 TANARA LAÍS HÜNEMEIER Beta Furlan S 0:25:03 0:05:00
2 0318 FERNANDA REGINA HERMANN Três Passos S 0:26:17 0:05:15
3 0312 ANGÉLICA CARINE VIERA MURARO ACORSEB S 0:26:45 0:05:21
4 0317 IANDORA N H PRETTO Três Passos S 0:27:16 0:05:27
5 0310 SAIONARA ARRIERA ACELCOR S 0:27:33 0:05:30
6 0315 CATIA CRISTINE URNAU VIVIAN MX RUNNER S 0:27:38 0:05:31
7 0306 LUANA SCHNEIDER WEBER KNECHTEL CCI S 0:28:58 0:05:47
8 0314 ANDRIELI ABADI MaratonaClub S 0:29:19 0:05:51
9 0313 LEIDIANE CRISTINA BARELLA EAtlet.deT.P S 0:30:42 0:06:08
10 0308 DAIANE TAÍS MOHR ACEHORUNNERS S 0:34:35 0:06:55
11 0305 VANESSA CAROLINA HACK DA COSTA R4H S 0:38:10 0:07:38
Categoria T:
===========================================================================
Pos|Nr |Nome |Equipe |Cat | Tempo | Pace
===========================================================================
1 0321 DIANA COSSETIN ZANOSO Búfalo T 0:24:14 0:04:50
2 0323 VERIDIANE MANN Advanced tea T 0:24:18 0:04:51
3 0342 RAMONI MURIEL ALVES TELEKEN MX RUNNER T 0:24:51 0:04:58
4 0332 MARLENE FONTANA Acorcb T 0:25:06 0:05:01
5 0333 CAROLINA DANIELA PADILHA ANR/ADIDAS T 0:25:30 0:05:06
6 0325 GABRIELA SZULCZEWSKI DOS SANTOS GCI T 0:25:56 0:05:11
7 0330 LILIAN BEATRIZ BINSFELD ACEHORUNNERS T 0:26:48 0:05:21
8 0340 JULIANE FOCKINK Curitiba T 0:26:51 0:05:22
9 0319 ALINE VANESSA DO NASCIMENTO MX RUNNER T 0:26:53 0:05:22
10 0210 MAGALI MACHADO DOS SANTOS MX RUNNER T 0:27:45 0:05:33
11 0341 CLAUDIA KIST Horizontina T 0:27:57 0:05:35
12 0336 ANA PAULA GÓIS CCI T 0:28:07 0:05:37
13 0335 CRISTIANA ALBARELLO Área 55 T 0:28:12 0:05:38
14 0324 CATIUSCIA BARCELOS CCI T 0:28:18 0:05:39
15 0339 SOLANGE APARECIDA DA CRUZ Cross Run T 0:29:14 0:05:50
16 0328 GIRLAINE PACHECO RITMUS T 0:29:41 0:05:56
17 0327 IVONE TEREZINHA VARGAS DE SOUZA ACORSEB T 0:30:23 0:06:04
18 0329 CASSIANI KAHLBANN BAIER ACEHORUNNERS T 0:30:26 0:06:05
19 0343 FÁBRICIA FOLIATTI STREETRUNNER T 0:30:58 0:06:11
20 0337 VIVIANE ELENA DA CRUZ CCI T 0:31:47 0:06:21
21 0334 SOLANGE CRISTINA CAPOANE DE VARG Area 55 T 0:32:05 0:06:25
22 0326 DEBORA FRANCIELI V. DA TRINDADE CCI T 0:32:08 0:06:25
23 0338 LIDIANE DALLA NORA CCI/Tbarbosa T 0:32:49 0:06:33
24 0331 BEATRIZ FREITAG ACEHORUNNERS T 0:34:38 0:06:55
Categoria U:
===========================================================================
Pos|Nr |Nome |Equipe |Cat | Tempo | Pace
===========================================================================
1 0349 SIDIANE DREYER MORAES MX RUNNER U 0:26:11 0:05:14
2 0351 ANA JUÇARA LEONE FRUETTI CCI U 0:26:33 0:05:18
3 0353 MARTA DUARTE Nao U 0:26:41 0:05:20
4 0345 GRACIELA SOLANGE WENDLING STREETRUNNER U 0:27:07 0:05:25
5 0346 LEONICE MADALENA DE SOUZA MX RUNNER U 0:28:25 0:05:41
6 0228 NEIVA LANG CCI U 0:28:52 0:05:46
7 0227 MIRIAM KOMMERS CCI U 0:29:05 0:05:49
8 0471 LIZIANI DA SILVA CCI U 0:29:38 0:05:55
9 0348 JULIANA PEDRALLI MX RUNNER U 0:32:01 0:06:24
10 0344 DEBORA FERRAZZA MX RUNNER U 0:32:11 0:06:26
11 0347 JULIA GRACIELA JANDREY ROTH Condor U 0:36:52 0:07:22
Categoria V:
===========================================================================
Pos|Nr |Nome |Equipe |Cat | Tempo | Pace
===========================================================================
1 0354 SANDRA PELISSON SCHERER CCI V 0:25:09 0:05:01
2 0360 SANDRA CORAZZA GONÇALVES Panambi V 0:25:22 0:05:04
3 0358 LUCIANE LOURENÇÃO GREGORI MaratonaClub V 0:29:25 0:05:53
4 0359 ROSANGELA SIMONE DA ROS PETRY MX RUNNER V 0:30:17 0:06:03
5 0356 ELENARA MARIA PRICHULA ACORSEB V 0:32:39 0:06:31
6 0357 VILMA CRUZ OLIVEIRA Coronel Bica V 0:36:49 0:07:21
Categoria W:
===========================================================================
Pos|Nr |Nome |Equipe |Cat | Tempo | Pace
===========================================================================
1 0364 SANDRA PSIUK ACELCOR W 0:30:07 0:06:01
2 0363 ROSANE TERESINHA A. SCHULZ ACEHORUNNERS W 0:31:52 0:06:22
3 0362 SIRLEI MOURA CROSS RUN W 0:33:40 0:06:44
Categoria X:
===========================================================================
Pos|Nr |Nome |Equipe |Cat | Tempo | Pace
===========================================================================
1 0367 CLEIR MOSSINI ACORFW X 0:24:54 0:04:58
2 0368 REJANE BISELLO ACORFW X 0:28:56 0:05:47
3 0369 VITÓRIA WONTROBA BANDEIRA CCI X 0:33:32 0:06:42
4 0365 MARLI TEREZA BIRKHAN Cross rum X 0:34:21 0:06:52
5 0370 MARINES SCHEER MX RUNNER X 0:37:26 0:07:29
Categoria Y:
===========================================================================
Pos|Nr |Nome |Equipe |Cat | Tempo | Pace
===========================================================================
1 0372 ROSANGELA MARIA FERRARI DE MATOS MX RUNNER Y 0:36:08 0:07:13
2 0371 ERENITA KONAGESKI CCI Y 0:38:20 0:07:40
3 0496 LENIR FATIMA ALVES DA ROCHA ACORSEB Y 0:39:05 0:07:49
===========================================================================
Classificação Geral da Prova de 2 Km
===========================================================================
Pos|Nr |Nome |Equipe |Cat | Tempo | Pace
===========================================================================
1 0073 GABRIEL FONSECA ROEHRS ANR/ADIDAS 7 0:07:32 0:03:49
1 0498 RAFAEL DA LUZ Ral runner f 0:07:41 0:03:50
2 0076 FELIPE RIBAS CHAGAS ANR/ADIDAS 7 0:07:44 0:03:52
3 0448 ELEOMAR DE SOUZA MX RUNNER g 0:07:48 0:03:54
4 0415 THOMAS MAGNUN FEISTHER MX RUNNER g 0:07:54 0:03:57
5 0445 MATEUS SOUZA Treino insan f 0:07:57 0:03:58
6 0081 YURI FRAGOSO AIRES ACELCOR 8 0:08:00 0:04:00
7 0447 ANDRÉ SILVA MX RUNNER g 0:08:04 0:04:02
8 0436 CARLOS DE OLIVEIRA PORN STREETRUNNER f 0:08:08 0:04:04
9 0085 MAYARA TONELLI Cci 9 0:08:12 0:04:06
10 0439 DIONATAN JENNERICH Campo Novo f 0:08:20 0:04:10
11 0459 ANDERSON RENATO DA SILVA MX RUNNER g 0:08:25 0:04:12
12 0433 ROBERTO TIAGO FERNANDES JÚNIOR CCI f 0:08:28 0:04:14
13 0444 ABNER VINÍCIUS DA SILVA CARVALHO STREETRUNNER f 0:08:31 0:04:15
14 0446 RYAN BOENO DE JESUS ACELCOR f 0:08:36 0:04:18
15 0019 PETALLA FIGUEIRA VIDAL ACEHORUNNERS 0 0:08:39 0:04:19
16 0461 GUSTAVO PUTZKE STREETRUNNER g 0:08:43 0:04:21
17 0088 ÁGATHA MILENA VÖLTZ ANR/ADIDAS 9 0:08:47 0:04:23
18 0438 NATHAN KOSLOVSKI OSTER CCI- Clube d f 0:08:56 0:04:28
19 0453 RUDYMAR DE CASTRO RIBEIRO Três Passos g 0:09:01 0:04:30
20 0455 GELSON DE OLIVEIRA PORN STREETRUNNER g 0:09:04 0:04:32
21 0089 CAROLINA SILVA DE VASCONCELLOS Cci/G7 9 0:09:08 0:04:34
22 0078 PEDRO AUGUSTO DE ABREU Três Passos 7 0:09:13 0:04:36
23 0434 JAMES VINICIUS KUMMER Cresol f 0:09:26 0:04:43
24 0500 WILLIAM MASCHIO FLECK Treino Insan f 0:09:30 0:04:45
25 0458 ANDERSON DICKEL MX RUNNER g 0:09:34 0:04:47
26 0449 CARLOS ROBERTO BARTZ BM g 0:09:40 0:04:50
27 0080 GUILHERME ARTUR MÜLLER Três Passos 8 0:09:43 0:04:51
28 0450 MOISES HENRICHSEN MX RUNNER g 0:09:46 0:04:53
29 0074 JOATAN ARTHUR SCHUANTES ACEHORUNNERS 7 0:09:49 0:04:54
30 0084 GABRIELLE BORGES CORRÊA CCI 9 0:09:52 0:04:56
31 0437 YAN RAMIRO DE LIMA STREETRUNNER f 0:09:59 0:04:59
32 0441 ADRIAN RODRIGO SCHWABE DA SILVA Esperança do f 0:10:06 0:05:03
33 0380 LUCIANO JUNIOR CARDOSO SCHWADE Humaitá f 0:10:09 0:05:04
34 0467 GELSON BRUM ANGER A Voz da Fé h 0:10:13 0:05:06
35 0490 ELIETE VANESSA SCHNEIDER SAMA RUNNERS d 0:10:16 0:05:08
36 0378 TAINARA BERGHAHN DE VARGAS Três Passos c 0:10:21 0:05:10
37 0469 NILVIO BARROS MARTINS MX RUNNER h 0:10:25 0:05:12
38 0470 MARCELO SCHUSTER ACELCOR h 0:10:28 0:05:14
39 0463 JULIANO EDUARDO BOTH DS ATLETISMO g 0:10:30 0:05:15
40 0083 MATHEUS VEBER STREETRUNNER 8 0:10:34 0:05:17
41 0417 SABRINA FERREIRA FORTES Três Passos d 0:10:38 0:05:19
42 0440 LEONARDO RIQUINHO CCI f 0:10:41 0:05:20
43 0086 SOFIA FREITAG ACEHORUNNERS 9 0:10:45 0:05:22
44 0077 BERNARDO AFONSO FOSS BARTZ Império da L 7 0:10:47 0:05:23
45 0385 EMILY DALCAROBO DORNELLES Campo Novo-R c 0:10:50 0:05:25
46 0451 IVAN RODRIGO MEINEN Equipe A1 g 0:10:53 0:05:26
47 0429 ROBERTA SCHERER MX RUNNER e 0:10:57 0:05:28
48 0087 AMANDA WEBER ACEHORUNNERS 9 0:11:00 0:05:30
49 0386 CARINE MICHELE NIENDICKER Três Passos c 0:11:03 0:05:31
50 0400 CRISTIANE SELL MÜLLER Três Passos d 0:11:06 0:05:33
51 0465 CLAUDETE PERCHIN MX RUNNER e 0:11:08 0:05:34
52 0409 JESSICA DORTELMANN MX RUNNER d 0:11:12 0:05:36
53 0468 DARCI JÚLIO MOHLER STREETRUNNER h 0:11:14 0:05:37
54 0390 CAMILA FERNANDA PERCHIM MENSCH MX RUNNER c 0:11:17 0:05:38
55 0432 ADRIANO SANTOS DA SILVA Pace livre f 0:11:20 0:05:40
56 0466 EDIMAR FRUETTI Livn h 0:11:23 0:05:41
57 0383 RENATA ROLOFF Búfalos do a c 0:11:26 0:05:43
58 0443 CAIO MIGUEL MOHLER STREETRUNNER f 0:11:29 0:05:44
59 0423 GIOVANE INES OSAJDA HIRT ACEHORUNNERS d 0:11:32 0:05:46
60 0425 RITA FORSTER MX RUNNER e 0:11:47 0:05:53
61 0411 PALOMA KLEIN MX RUNNER d 0:11:50 0:05:55
62 0382 ANA MARIA TERRA PACE LIVRE c 0:12:02 0:06:01
63 0431 MARIA IRACI SCHMITT STREETRUNNER e 0:12:07 0:06:03
64 0391 DANIELA RAMOS Pace livre c 0:12:11 0:06:05
65 0412 FERNANDA BRESOLIN VIEIRA Campo Novo d 0:12:19 0:06:09
66 0402 BIANCA JUNGES MX RUNNER d 0:12:22 0:06:11
67 0381 LUANA CAROLINE KAMPHORST KEPKE Cresol c 0:12:25 0:06:12
68 0405 PATRÍCIA MAGALI DANIEL SCHMIDT Cresol d 0:12:28 0:06:14
69 0020 ISADORA BONES ACEHORUNNERS 0 0:12:42 0:06:21
70 0397 ELIANE CRISTINA BARANCELLI Brigada Mili d 0:12:47 0:06:23
71 0393 GABRIELA PINHEIRO Três Passos c 0:12:51 0:06:25
72 0079 KAIK VERDUM Três Passos 7 0:12:54 0:06:27
73 0418 KEILA FERRAZ GONÇALVES Três Passos d 0:12:57 0:06:28
74 0016 CINTHIA DA TRINDADE DOS SANTOS CCI 0 0:12:59 0:06:29
75 0396 EDUARDA BONES ACEHORUNNERS c 0:13:04 0:06:32
76 0377 JULIANA NERISSA STREETRUNNER c 0:13:08 0:06:34
77 0430 ANISIA VIVIAN Três Passos e 0:13:12 0:06:36
78 0395 KAOANA FERON DOS SANTOS CCI c 0:13:20 0:06:40
79 0398 LAURA MONTEIRO AssPortelens d 0:13:26 0:06:43
80 0388 MICHELE LOPES DE MORAES bufalosdoasf c 0:13:32 0:06:46
81 0407 LUANA DE OLIVEIRA MACHADO CCI d 0:13:36 0:06:48
82 0384 ANDRESSA DRESCH STREETRUNNER c 0:13:40 0:06:50
83 0375 PAMELA MAYER Cresol c 0:13:52 0:06:56
84 0389 DAIANE CARVALHO ROSA Cresol Raiz c 0:13:55 0:06:57
85 0419 DEBORAH ANDREA HUNHOFF NEIS Humaita d 0:13:59 0:06:59
86 0399 DANIELA SANTOS Santa Rosa d 0:14:04 0:07:02
87 0413 NILTIANE BRITTES PEREIRA CCCI d 0:14:08 0:07:04
88 0075 JOÃO PEDRO PADILHA PEREIRA ANR/ADIDAS 7 0:14:13 0:07:06
89 0427 IZABEL FRANCO CCI e 0:14:22 0:07:11
90 0416 BRUNA LETICIA FLACH PUTZKE STREETRUNNER d 0:14:32 0:07:16
91 0410 ELLEN CHRIST Humaitá d 0:14:35 0:07:17
92 0424 MARIA WINCK Braga e 0:14:59 0:07:29
93 0422 DJANE RONCATO ACEHORUNNERS d 0:15:03 0:07:31
94 0454 NILMAR REUTER MM Informáti g 0:15:11 0:07:35
95 0421 LINDIANARA SCHNEIDER DO NASCIMEN Frederico We d 0:15:17 0:07:38
96 0420 WALESKA IZABELLE NIED Três Passos d 0:15:20 0:07:40
97 0403 LUCIANE RIBEIRO BALDO Casa Paulist d 0:15:24 0:07:42
98 0373 ADRIELI CAROLINE ROHSLER VIEIRA Três Passos c 0:15:34 0:07:47
99 0414 ELISANGELA PATRÍCIA BUENO MALHEI Equipe R4H d 0:16:05 0:08:02
100 0017 KEVILLYN NICOLI DA SILVA REBELO Três Passos 0 0:16:08 0:08:04
101 0462 EDUARDO FERRARI TENENTE PORT g 0:16:34 0:08:17
102 0426 MELITA HENKES Três Passos e 0:16:54 0:08:27
103 0404 ANA GRACIELI COSTA DA SILVA REBE Três Passos d 0:17:15 0:08:37
104 0408 JANAINE ROSSANA GISCH Cresol d 0:17:19 0:08:39
105 0392 JULIA CAROLAINE DOS SANTOS LOURE STREETRUNNER c 0:17:26 0:08:43
106 0401 ANDRÉIA DOEBBER Cresol d 0:17:31 0:08:45
107 0018 MARIANE SI PAIXÃO DE SOUZA CCI 0 0:17:38 0:08:49
108 0452 JUSSARA REGINA PREDIGER KASPARY STREETRUNNER d 0:18:39 0:09:19
109 0073 GABRIEL FONSECA ROEHRS ANR/ADIDAS 7 0:07:32 0:03:49
Premiação Por Categorias
Categoria 7:
===========================================================================
Pos|Nr |Nome |Equipe |Cat | Tempo | Pace
===========================================================================
1 0073 GABRIEL FONSECA ROEHRS ANR/ADIDAS 7 0:07:32 0:03:49
2 0076 FELIPE RIBAS CHAGAS ANR/ADIDAS 7 0:07:44 0:03:52
3 0078 PEDRO AUGUSTO DE ABREU Três Passos 7 0:09:13 0:04:36
4 0074 JOATAN ARTHUR SCHUANTES ACEHORUNNERS 7 0:09:49 0:04:54
5 0077 BERNARDO AFONSO FOSS BARTZ Império da L 7 0:10:47 0:05:23
6 0079 KAIK VERDUM Três Passos 7 0:12:54 0:06:27
7 0075 JOÃO PEDRO PADILHA PEREIRA ANR/ADIDAS 7 0:14:13 0:07:06
Categoria 8:
===========================================================================
Pos|Nr |Nome |Equipe |Cat | Tempo | Pace
===========================================================================
1 0081 YURI FRAGOSO AIRES ACELCOR 8 0:08:00 0:04:00
2 0080 GUILHERME ARTUR MÜLLER Três Passos 8 0:09:43 0:04:51
3 0083 MATHEUS VEBER STREETRUNNER 8 0:10:34 0:05:17
Categoria 9:
===========================================================================
Pos|Nr |Nome |Equipe |Cat | Tempo | Pace
===========================================================================
1 0085 MAYARA TONELLI Cci 9 0:08:12 0:04:06
2 0088 ÁGATHA MILENA VÖLTZ ANR/ADIDAS 9 0:08:47 0:04:23
3 0089 CAROLINA SILVA DE VASCONCELLOS Cci/G7 9 0:09:08 0:04:34
4 0084 GABRIELLE BORGES CORRÊA CCI 9 0:09:52 0:04:56
5 0086 SOFIA FREITAG ACEHORUNNERS 9 0:10:45 0:05:22
6 0087 AMANDA WEBER ACEHORUNNERS 9 0:11:00 0:05:30
Categoria 0:
===========================================================================
Pos|Nr |Nome |Equipe |Cat | Tempo | Pace
===========================================================================
1 0019 PETALLA FIGUEIRA VIDAL ACEHORUNNERS 0 0:08:39 0:04:19
2 0020 ISADORA BONES ACEHORUNNERS 0 0:12:42 0:06:21
3 0016 CINTHIA DA TRINDADE DOS SANTOS CCI 0 0:12:59 0:06:29
4 0017 KEVILLYN NICOLI DA SILVA REBELO Três Passos 0 0:16:08 0:08:04
5 0018 MARIANE SI PAIXÃO DE SOUZA CCI 0 0:17:38 0:08:49
Categoria c:
===========================================================================
Pos|Nr |Nome |Equipe |Cat | Tempo | Pace
===========================================================================
1 0378 TAINARA BERGHAHN DE VARGAS Três Passos c 0:10:21 0:05:10
2 0385 EMILY DALCAROBO DORNELLES Campo Novo-R c 0:10:50 0:05:25
3 0386 CARINE MICHELE NIENDICKER Três Passos c 0:11:03 0:05:31
4 0390 CAMILA FERNANDA PERCHIM MENSCH MX RUNNER c 0:11:17 0:05:38
5 0383 RENATA ROLOFF Búfalos do a c 0:11:26 0:05:43
6 0382 ANA MARIA TERRA PACE LIVRE c 0:12:02 0:06:01
7 0391 DANIELA RAMOS Pace livre c 0:12:11 0:06:05
8 0381 LUANA CAROLINE KAMPHORST KEPKE Cresol c 0:12:25 0:06:12
9 0393 GABRIELA PINHEIRO Três Passos c 0:12:51 0:06:25
10 0396 EDUARDA BONES ACEHORUNNERS c 0:13:04 0:06:32
11 0377 JULIANA NERISSA STREETRUNNER c 0:13:08 0:06:34
12 0395 KAOANA FERON DOS SANTOS CCI c 0:13:20 0:06:40
13 0388 MICHELE LOPES DE MORAES bufalosdoasf c 0:13:32 0:06:46
14 0384 ANDRESSA DRESCH STREETRUNNER c 0:13:40 0:06:50
15 0375 PAMELA MAYER Cresol c 0:13:52 0:06:56
16 0389 DAIANE CARVALHO ROSA Cresol Raiz c 0:13:55 0:06:57
17 0373 ADRIELI CAROLINE ROHSLER VIEIRA Três Passos c 0:15:34 0:07:47
18 0392 JULIA CAROLAINE DOS SANTOS LOURE STREETRUNNER c 0:17:26 0:08:43
Categoria d:
===========================================================================
Pos|Nr |Nome |Equipe |Cat | Tempo | Pace
===========================================================================
1 0490 ELIETE VANESSA SCHNEIDER SAMA RUNNERS d 0:10:16 0:05:08
2 0417 SABRINA FERREIRA FORTES Três Passos d 0:10:38 0:05:19
3 0400 CRISTIANE SELL MÜLLER Três Passos d 0:11:06 0:05:33
4 0409 JESSICA DORTELMANN MX RUNNER d 0:11:12 0:05:36
5 0423 GIOVANE INES OSAJDA HIRT ACEHORUNNERS d 0:11:32 0:05:46
6 0411 PALOMA KLEIN MX RUNNER d 0:11:50 0:05:55
7 0412 FERNANDA BRESOLIN VIEIRA Campo Novo d 0:12:19 0:06:09
8 0402 BIANCA JUNGES MX RUNNER d 0:12:22 0:06:11
9 0405 PATRÍCIA MAGALI DANIEL SCHMIDT Cresol d 0:12:28 0:06:14
10 0397 ELIANE CRISTINA BARANCELLI Brigada Mili d 0:12:47 0:06:23
11 0418 KEILA FERRAZ GONÇALVES Três Passos d 0:12:57 0:06:28
12 0398 LAURA MONTEIRO AssPortelens d 0:13:26 0:06:43
13 0407 LUANA DE OLIVEIRA MACHADO CCI d 0:13:36 0:06:48
14 0419 DEBORAH ANDREA HUNHOFF NEIS Humaita d 0:13:59 0:06:59
15 0399 DANIELA SANTOS Santa Rosa d 0:14:04 0:07:02
16 0413 NILTIANE BRITTES PEREIRA CCCI d 0:14:08 0:07:04
17 0416 BRUNA LETICIA FLACH PUTZKE STREETRUNNER d 0:14:32 0:07:16
18 0410 ELLEN CHRIST Humaitá d 0:14:35 0:07:17
19 0422 DJANE RONCATO ACEHORUNNERS d 0:15:03 0:07:31
20 0421 LINDIANARA SCHNEIDER DO NASCIMEN Frederico We d 0:15:17 0:07:38
21 0420 WALESKA IZABELLE NIED Três Passos d 0:15:20 0:07:40
22 0403 LUCIANE RIBEIRO BALDO Casa Paulist d 0:15:24 0:07:42
23 0414 ELISANGELA PATRÍCIA BUENO MALHEI Equipe R4H d 0:16:05 0:08:02
24 0404 ANA GRACIELI COSTA DA SILVA REBE Três Passos d 0:17:15 0:08:37
25 0408 JANAINE ROSSANA GISCH Cresol d 0:17:19 0:08:39
26 0401 ANDRÉIA DOEBBER Cresol d 0:17:31 0:08:45
27 0452 JUSSARA REGINA PREDIGER KASPARY STREETRUNNER d 0:18:39 0:09:19
Categoria e:
===========================================================================
Pos|Nr |Nome |Equipe |Cat | Tempo | Pace
===========================================================================
1 0429 ROBERTA SCHERER MX RUNNER e 0:10:57 0:05:28
2 0465 CLAUDETE PERCHIN MX RUNNER e 0:11:08 0:05:34
3 0425 RITA FORSTER MX RUNNER e 0:11:47 0:05:53
4 0431 MARIA IRACI SCHMITT STREETRUNNER e 0:12:07 0:06:03
5 0430 ANISIA VIVIAN Três Passos e 0:13:12 0:06:36
6 0427 IZABEL FRANCO CCI e 0:14:22 0:07:11
7 0424 MARIA WINCK Braga e 0:14:59 0:07:29
8 0426 MELITA HENKES Três Passos e 0:16:54 0:08:27
Categoria f:
===========================================================================
Pos|Nr |Nome |Equipe |Cat | Tempo | Pace
===========================================================================
1 0498 RAFAEL DA LUZ Ral runner f 0:07:41 0:03:50
2 0445 MATEUS SOUZA Treino insan f 0:07:57 0:03:58
3 0436 CARLOS DE OLIVEIRA PORN STREETRUNNER f 0:08:08 0:04:04
4 0439 DIONATAN JENNERICH Campo Novo f 0:08:20 0:04:10
5 0433 ROBERTO TIAGO FERNANDES JÚNIOR CCI f 0:08:28 0:04:14
6 0444 ABNER VINÍCIUS DA SILVA CARVALHO STREETRUNNER f 0:08:31 0:04:15
7 0446 RYAN BOENO DE JESUS ACELCOR f 0:08:36 0:04:18
8 0438 NATHAN KOSLOVSKI OSTER CCI- Clube d f 0:08:56 0:04:28
9 0434 JAMES VINICIUS KUMMER Cresol f 0:09:26 0:04:43
10 0500 WILLIAM MASCHIO FLECK Treino Insan f 0:09:30 0:04:45
11 0437 YAN RAMIRO DE LIMA STREETRUNNER f 0:09:59 0:04:59
12 0441 ADRIAN RODRIGO SCHWABE DA SILVA Esperança do f 0:10:06 0:05:03
13 0380 LUCIANO JUNIOR CARDOSO SCHWADE Humaitá f 0:10:09 0:05:04
14 0440 LEONARDO RIQUINHO CCI f 0:10:41 0:05:20
15 0432 ADRIANO SANTOS DA SILVA Pace livre f 0:11:20 0:05:40
16 0443 CAIO MIGUEL MOHLER STREETRUNNER f 0:11:29 0:05:44
Categoria g:
===========================================================================
Pos|Nr |Nome |Equipe |Cat | Tempo | Pace
===========================================================================
1 0448 ELEOMAR DE SOUZA MX RUNNER g 0:07:48 0:03:54
2 0415 THOMAS MAGNUN FEISTHER MX RUNNER g 0:07:54 0:03:57
3 0447 ANDRÉ SILVA MX RUNNER g 0:08:04 0:04:02
4 0459 ANDERSON RENATO DA SILVA MX RUNNER g 0:08:25 0:04:12
5 0461 GUSTAVO PUTZKE STREETRUNNER g 0:08:43 0:04:21
6 0453 RUDYMAR DE CASTRO RIBEIRO Três Passos g 0:09:01 0:04:30
7 0455 GELSON DE OLIVEIRA PORN STREETRUNNER g 0:09:04 0:04:32
8 0458 ANDERSON DICKEL MX RUNNER g 0:09:34 0:04:47
9 0449 CARLOS ROBERTO BARTZ BM g 0:09:40 0:04:50
10 0450 MOISES HENRICHSEN MX RUNNER g 0:09:46 0:04:53
11 0463 JULIANO EDUARDO BOTH DS ATLETISMO g 0:10:30 0:05:15
12 0451 IVAN RODRIGO MEINEN Equipe A1 g 0:10:53 0:05:26
13 0454 NILMAR REUTER MM Informáti g 0:15:11 0:07:35
14 0462 EDUARDO FERRARI TENENTE PORT g 0:16:34 0:08:17
Categoria h:
===========================================================================
Pos|Nr |Nome |Equipe |Cat | Tempo | Pace
===========================================================================
1 0467 GELSON BRUM ANGER A Voz da Fé h 0:10:13 0:05:06
2 0469 NILVIO BARROS MARTINS MX RUNNER h 0:10:25 0:05:12
3 0470 MARCELO SCHUSTER ACELCOR h 0:10:28 0:05:14
4 0468 DARCI JÚLIO MOHLER STREETRUNNER h 0:11:14 0:05:37
5 0466 EDIMAR FRUETTI Livn h 0:11:23 0:05:41
===========================================================================
Classificação Geral da Prova de 600 Mts
===========================================================================
Pos|Nr |Nome |Equipe |Cat | Tempo | Pace
===========================================================================
1 0057 ARTHUR DALLA NORA CCI/Tbarbosa 4 0:01:51 0:03:05
2 0036 ARTHUR DA TRINDADE DOS SANTOS CCI 3 0:02:01 0:03:23
3 0046 LUCAS GABRIEL DOS SANTOS ALFING CCI 4 0:02:09 0:03:35
4 0033 JOSÉ PEDRO RUWER SCHNEIDER ANR/ADIDAS 3 0:02:12 0:03:41
5 0044 BERNARDO SOARDI GUSMÃO CCI 3 0:02:16 0:03:47
6 0043 ANTHONY GÓIS BENCKE CCI 3 0:02:20 0:03:54
7 0067 EDUARDA DALLEPIANI FIDENCIO CCI/ bolsa a 6 0:02:23 0:03:59
8 0069 VALENTINA PADILHA ACEHORUNNERS 6 0:02:26 0:04:04
9 0051 PEDRO MOHR ACEHORUNNERS 4 0:02:29 0:04:08
10 0047 DAVI PEREIRA DA SILVA Advanced tea 4 0:02:33 0:04:16
11 0053 ARTHUR VIANNA ACEHORUNNERS 4 0:02:36 0:04:20
12 0045 VICENTE RAFAEL KNECHTEL CCI 4 0:02:38 0:04:24
13 0070 SERENA MARON CCI 6 0:02:41 0:04:29
14 0055 EMANUEL BOTH ACELCOR 4 0:02:44 0:04:33
15 0027 AYLA MARON DIAS CCI 5 0:02:46 0:04:37
16 0066 ELOISA SPOHR FRELING Horizontina 5 0:02:49 0:04:42
17 0031 ENZO BARCELOS ANDRADE CCI 3 0:02:52 0:04:46
18 0068 MANUELA BESCHORNER BECK CCI 6 0:02:55 0:04:52
19 0052 RAFAEL BINSFELD DOS SANTOS ACEHORUNNERS 4 0:02:58 0:04:57
20 0054 ROBERT JUBERT BENDER ACEHORUNNERS 4 0:03:00 0:05:00
21 0048 MURILO AUGUSTO MULLER Três Passos 4 0:03:03 0:05:05
22 0071 SOPHIA FENGLER CCI 6 0:03:05 0:05:09
23 0072 AMANDA HAMMARSTRON SOARES CCI 6 0:03:08 0:05:13
24 0049 HEITOR HORST PRETTO Três Passos 4 0:03:11 0:05:18
25 0032 GIULLIA ANTUNES DOS SANTOS CCI 5 0:03:13 0:05:21
26 0065 ALICE HELENA DE LIMA BOTH DS ATLETISMO 5 0:03:15 0:05:26
27 0040 JOAQUIM KIST ACEHORUNNERS 3 0:03:18 0:05:31
28 0061 MARIA MOHR ACEHORUNNERS 5 0:03:20 0:05:34
29 0035 MIGUEL BECKEL DA SILVA Três Passos 3 0:03:22 0:05:37
31 0062 AURORA QUEIROZ DA LUZ ACEHORUNNERS 5 0:03:27 0:05:46
32 0041 EMANOEL BARELLA CARDOSO Atlet.deT.P. 3 0:03:30 0:05:50
33 0060 MARIA EDUARDA DICKEL Três Passos 5 0:03:32 0:05:54
35 0037 MIGUEL AUGUSTO WEISS HEUTER ACEHORUNNERS 3 0:03:48 0:06:20
36 0034 MIGUEL ARTHUR ZIMMERMANN REUTER Três Passos 3 0:03:50 0:06:24
37 0064 ANTONELLA DANIEL SIQUEIRA Cresol 5 0:04:11 0:06:59
Premiação Por Categorias
Categoria 3:
===========================================================================
Pos|Nr |Nome |Equipe |Cat | Tempo | Pace
===========================================================================
1 0036 ARTHUR DA TRINDADE DOS SANTOS CCI 3 0:02:01 0:03:23
2 0033 JOSÉ PEDRO RUWER SCHNEIDER ANR/ADIDAS 3 0:02:12 0:03:41
3 0044 BERNARDO SOARDI GUSMÃO CCI 3 0:02:16 0:03:47
4 0043 ANTHONY GÓIS BENCKE CCI 3 0:02:20 0:03:54
5 0031 ENZO BARCELOS ANDRADE CCI 3 0:02:52 0:04:46
6 0040 JOAQUIM KIST ACEHORUNNERS 3 0:03:18 0:05:31
7 0035 MIGUEL BECKEL DA SILVA Três Passos 3 0:03:22 0:05:37
8 0024 BENJAMIN FREITAG AMARAL ACEHORUNNERS 3 0:03:24 0:05:41
9 0041 EMANOEL BARELLA CARDOSO Atlet.deT.P. 3 0:03:30 0:05:50
10 0037 MIGUEL AUGUSTO WEISS HEUTER ACEHORUNNERS 3 0:03:48 0:06:20
11 0034 MIGUEL ARTHUR ZIMMERMANN REUTER Três Passos 3 0:03:50 0:06:24
Categoria 4:
===========================================================================
Pos|Nr |Nome |Equipe |Cat | Tempo | Pace
===========================================================================
1 0057 ARTHUR DALLA NORA CCI/Tbarbosa 4 0:01:51 0:03:05
2 0046 LUCAS GABRIEL DOS SANTOS ALFING CCI 4 0:02:09 0:03:35
3 0051 PEDRO MOHR ACEHORUNNERS 4 0:02:29 0:04:08
4 0047 DAVI PEREIRA DA SILVA Advanced tea 4 0:02:33 0:04:16
5 0053 ARTHUR VIANNA ACEHORUNNERS 4 0:02:36 0:04:20
6 0045 VICENTE RAFAEL KNECHTEL CCI 4 0:02:38 0:04:24
7 0055 EMANUEL BOTH ACELCOR 4 0:02:44 0:04:33
8 0052 RAFAEL BINSFELD DOS SANTOS ACEHORUNNERS 4 0:02:58 0:04:57
9 0054 ROBERT JUBERT BENDER ACEHORUNNERS 4 0:03:00 0:05:00
10 0048 MURILO AUGUSTO MULLER Três Passos 4 0:03:03 0:05:05
11 0049 HEITOR HORST PRETTO Três Passos 4 0:03:11 0:05:18
Categoria 5:
===========================================================================
Pos|Nr |Nome |Equipe |Cat | Tempo | Pace
===========================================================================
1 0027 AYLA MARON DIAS CCI 5 0:02:46 0:04:37
2 0066 ELOISA SPOHR FRELING Horizontina 5 0:02:49 0:04:42
3 0032 GIULLIA ANTUNES DOS SANTOS CCI 5 0:03:13 0:05:21
4 0065 ALICE HELENA DE LIMA BOTH DS ATLETISMO 5 0:03:15 0:05:26
5 0061 MARIA MOHR ACEHORUNNERS 5 0:03:20 0:05:34
6 0062 AURORA QUEIROZ DA LUZ ACEHORUNNERS 5 0:03:27 0:05:46
7 0060 MARIA EDUARDA DICKEL Três Passos 5 0:03:32 0:05:54
8 0064 ANTONELLA DANIEL SIQUEIRA Cresol 5 0:04:11 0:06:59
Categoria 6:
===========================================================================
Pos|Nr |Nome |Equipe |Cat | Tempo | Pace
===========================================================================
1 0067 EDUARDA DALLEPIANI FIDENCIO CCI/ bolsa a 6 0:02:23 0:03:59
2 0069 VALENTINA PADILHA ACEHORUNNERS 6 0:02:26 0:04:04
3 0070 SERENA MARON CCI 6 0:02:41 0:04:29
4 0068 MANUELA BESCHORNER BECK CCI 6 0:02:55 0:04:52
5 0071 SOPHIA FENGLER CCI 6 0:03:05 0:05:09
6 0072 AMANDA HAMMARSTRON SOARES CCI 6 0:03:08 0:05:13
===========================================================================
Classificação Geral da Prova de 400 Mts
===========================================================================
Pos|Nr |Nome |Equipe |Cat | Tempo | Pace
===========================================================================
1 0014 ARTHUR POZZADA BERTEI Raptors 1 0:01:45 0:04:24
2 0023 FERNANDA NATHALIA HIRT ACEHORUNNERS 2 0:01:48 0:04:31
3 0007 ERIC BARCELOS ANDRADE CCI 1 0:01:51 0:04:39
4 0012 THEO DALLA NORA CCI/Tbarbosa 1 0:01:54 0:04:45
5 0028 ALICE HAMMARSTRON SOARES CCI 2 0:01:57 0:04:53
6 0003 FRANCISCO KONAGESKI OLIVESKI CCI 1 0:02:00 0:05:01
7 0005 ARTHUR SCHNEIDER POZZEBON Horizontina 1 0:02:04 0:05:12
8 0022 CHARLYNNE DOTTO HIRT ACEHORUNNERS 2 0:02:07 0:05:19
9 0008 FREDERICO BINSFELD DOS SANTOS ACEHORUNNERS 1 0:02:12 0:05:32
10 0039 BENJAMIN FREITAG AMARAL ACEHORUNNERS 3 0:02:16 0:05:40
11 0013 AGATHA SOPHIA HORST PATRIOTAS 2 0:02:24 0:06:01
12 0006 ANTÔNIO MONTEIRO KRUMENAUER AssPortelens 1 0:02:27 0:06:09
13 0011 GABRIEL HENRIQUE DA SILVA DE AND CCI/Tbarbosa 1 0:02:40 0:06:40
14 0009 RAVI SCHULZ ACEHORUNNERS 1 0:02:50 0:07:06
15 0030 JULIA DANIEL SCHMIDT Cresol 2 0:03:27 0:08:39
Premiação Por Categorias
Categoria 1:
===========================================================================
Pos|Nr |Nome |Equipe |Cat | Tempo | Pace
===========================================================================
1 0014 ARTHUR POZZADA BERTEI Raptors 1 0:01:45 0:04:24
2 0007 ERIC BARCELOS ANDRADE CCI 1 0:01:51 0:04:39
3 0012 THEO DALLA NORA CCI/Tbarbosa 1 0:01:54 0:04:45
4 0003 FRANCISCO KONAGESKI OLIVESKI CCI 1 0:02:00 0:05:01
5 0005 ARTHUR SCHNEIDER POZZEBON Horizontina 1 0:02:04 0:05:12
6 0008 FREDERICO BINSFELD DOS SANTOS ACEHORUNNERS 1 0:02:12 0:05:32
7 0006 ANTÔNIO MONTEIRO KRUMENAUER AssPortelens 1 0:02:27 0:06:09
8 0011 GABRIEL HENRIQUE DA SILVA DE AND CCI/Tbarbosa 1 0:02:40 0:06:40
9 0009 RAVI SCHULZ ACEHORUNNERS 1 0:02:50 0:07:06
Categoria 2:
===========================================================================
Pos|Nr |Nome |Equipe |Cat | Tempo | Pace
===========================================================================
1 0023 FERNANDA NATHALIA HIRT ACEHORUNNERS 2 0:01:48 0:04:31
2 0028 ALICE HAMMARSTRON SOARES CCI 2 0:01:57 0:04:53
3 0022 CHARLYNNE DOTTO HIRT ACEHORUNNERS 2 0:02:07 0:05:19
4 0013 AGATHA SOPHIA HORST PATRIOTAS 2 0:02:24 0:06:01
5 0030 JULIA DANIEL SCHMIDT Cresol 2 0:03:27 0:08:39
6 0039 YASMIM FREITAG AMARAL ACEHORUNNERS 2 0:03:36 0:08:44
===========================================================================